Flag for U.S.A. Weather past 2 weeks in Detroit, Michigan, U.S.A.

Now
28 °F

Partly sunny.


Feels Like: 28 °F
Forecast: 24 / 35 °F
Wind: No wind

Location: Detroit City Airport

Current Time: Dec 21, 2014 at 9:42:48 AM

Latest Report: Dec 21, 2014 at 8:53 AM


Visibility: 5 mi

Pressure: 30.33 "Hg

Humidity: 78%

Dew point: 22 °F

Location of DetroitLocation

Historic Weather in Detroit — Graph

°F

Detroit temperature yesterday

Maximum temperature yesterday: 32 °F (at 12:53 PM)
Minimum temperature yesterday: 22 °F (at 1:53 AM)
Average temperature yesterday: 29 °F

Past Weeks' High & Low Weather Summary

 TemperatureHumidityPressure
High52 °F (Dec 14, 12:53 PM)93% (Dec 16, 9:53 AM)30.73 "Hg (Dec 16, 9:53 AM)
Low22 °F (Dec 20, 1:53 AM)28% (Dec 11, 12:53 PM)29.67 "Hg (Dec 16, 12:53 PM)
Average36 °F70%30.18 "Hg
* Reported Dec 6 7:53 AM — Dec 21 7:53 AM, Detroit, Weather by CustomWeather, © 2014

Note: Actual official high and low records may vary slightly from our data, if they occured in-between our weather recording intervals... More about our weather records

Advertising

Detroit weather history for previous 24 hours

 ConditionsComfort  
Time TempWeatherWind HumidityBarometerVisibility
7:53 AM
Dec 21
25 °FPassing clouds.No wind78%30.34 "Hg6 mi
6:53 AM25 °FPassing clouds.No wind78%30.34 "Hg7 mi
5:53 AM27 °FClear.No wind72%30.33 "Hg7 mi
4:53 AM28 °FPassing clouds.No wind72%30.32 "Hg8 mi
3:53 AM30 °FOvercast.No wind64%30.32 "Hg9 mi
2:53 AM31 °FPassing clouds.No wind61%30.32 "Hg10 mi
1:53 AM32 °FOvercast.3 mph59%30.31 "Hg10 mi
12:53 AM31 °FOvercast.No wind69%30.31 "Hg10 mi
11:53 PM
Dec 20
31 °FOvercast.3 mph67%30.30 "Hg10 mi
10:53 PM31 °FOvercast.No wind69%30.31 "Hg10 mi
9:53 PM32 °FOvercast.5 mph66%30.32 "Hg10 mi
8:53 PM32 °FOvercast.No wind66%30.32 "Hg10 mi
7:53 PM32 °FOvercast.3 mph66%30.32 "Hg10 mi
6:53 PM32 °FOvercast.No wind64%30.31 "Hg10 mi
5:53 PM32 °FOvercast.No wind64%30.31 "Hg10 mi
4:53 PM32 °FOvercast.No wind61%30.30 "Hg10 mi
3:53 PM32 °FOvercast.No wind64%30.29 "Hg10 mi
2:53 PM32 °FOvercast.No wind61%30.29 "Hg9 mi
1:53 PM32 °FOvercast.No wind61%30.30 "Hg10 mi
12:53 PM32 °FOvercast.No wind61%30.31 "Hg10 mi
11:53 AM31 °FOvercast.No wind64%30.33 "Hg10 mi
10:53 AM31 °FOvercast.No wind64%30.34 "Hg10 mi
9:53 AM30 °FOvercast.No wind66%30.34 "Hg10 mi
Weather by CustomWeather, © 2014

See weather overviewHow to use our weather pages